OpenBCM V2.0.2 (Linux)

Packet Radio Mailbox

IZ3LSV

[San Dona' di P. JN]

 Login: GUEST





  
LU9DCE > KEPS     11.03.18 18:13l 263 Lines 13101 Bytes #999 (0) @ WW
BID : 34010_LU9DCE
Read: GUEST
Subj: SAT TLE OF 11
Path: IZ3LSV<IR2UBX<EA2RCF<LU9DCE
Sent: 180311/1601Z @:LU9DCE.TOR.BA.ARG.SOAM #:34010 [TORTUGUITAS] FBB7.07
From: LU9DCE@LU9DCE.TOR.BA.ARG.SOAM
To  : KEPS@WW


            __    _  _  ___  ____   ___  ____    ____  ____  ____
           (  )  / )( \/ _ \(    \ / __)(  __)  (  _ \(  _ \/ ___)
           / (_/\) \/ (\__  )) D (( (__  ) _)    ) _ ( ) _ (\___ \
           \____/\____/(___/(____/ \___)(____)  (____/(____/(____/
               ESTACION DE PACKET RADIO - BUENOS AIRES (GF05OM)
                   BOLETINES INFORMATIVOS PROGRAMADOS (BIP)
                    LU9DCE@GMX.COM - RF 147070 @ 1200 BAUD
                           telnet lu9dce.dynu.com
             BBS port 6300 / NODE port 3694 / DXCLUSTER port 9000

+------------------------------------------------------------------------------+
OSCAR 7
1 07530U 74089B   18070.51482156 -.00000019  00000-0  16115-3 0  9999
2 07530 101.6749  39.3476 0012117 162.7234 343.0414 12.53631568982350
OSCAR 11 (UoSAT 2)
1 14781U 84021B   18069.89549279 +.00000065 +00000-0 +14157-4 0  9996
2 14781 097.6625 110.2362 0009613 052.3674 307.8411 14.82985497808871
OSCAR 19 (LUSAT)
1 20442U 90005G   18069.89361946 +.00000004 +00000-0 +17695-4 0  9992
2 20442 098.6020 009.0347 0012921 081.1453 279.1193 14.32888869469759
KITSAT B
1 22825U 93061C   18068.37587796 -.00000003  00000-0  16690-4 0  9993
2 22825  98.8516  42.7425 0007342 279.4514  80.5837 14.30023498275302
POSAT 1
1 22826U 93061D   18069.88478845  .00000007  00000-0  20430-4 0  9995
2 22826  98.8459  44.3266 0007851 262.8474  97.1815 14.30354695275706
RADIO ROSTO
1 23439U 94085A   18069.73066731 -.00000053 +00000-0 -29251-3 0  9996
2 23439 064.8167 148.0684 0160630 199.7210 328.9872 11.27566634955460
JAS 2
1 24278U 96046B   18069.66144111 -.00000051 +00000-0 -15191-4 0  9995
2 24278 098.5268 281.9395 0350507 006.7155 353.8508 13.53081870064664
TECHSAT 1B
1 25397U 98043D   18069.91774850 -.00000009 +00000-0 +15190-4 0  9995
2 25397 098.6408 012.0310 0000818 007.1357 352.9834 14.23641127021525
ISS (ZARYA)
1 25544U 98067A   18070.55195098  .00001786  00000-0  34106-4 0  9998
2 25544  51.6417 145.4458 0002424 172.3444 328.3932 15.54212652103337
PCSAT
1 26931U 01043C   18070.54191883 -.00000031  00000-0  19951-4 0  9998
2 26931  67.0504 121.3654 0006363 282.7869  77.2521 14.30496530858580
SAUDISAT 1C
1 27607U 02058C   18069.86362292  .00000024  00000-0  24201-4 0  9998
2 27607  64.5563  30.5676 0053692 351.5068   8.5120 14.75426662818458
CUTE-1
1 27844U 03031E   18069.94977040 +.00000065 +00000-0 +48919-4 0  9992
2 27844 098.6894 080.0446 0008757 299.1319 060.8982 14.22098698762191
CUBESAT XI 4
1 27848U 03031J   18069.95219491 +.00000041 +00000-0 +38648-4 0  9998
2 27848 098.6982 080.4112 0008767 310.3466 049.6945 14.21704587762078
MOZHAYETS 4
1 27939U 03042A   18070.55129810  .00000117  00000-0  29440-4 0  9998
2 27939  97.9732 212.2992 0014347  98.0941 330.4126 14.66663442772508
CUBESAT XI 5
1 28895U 05043F   18069.89377206 +.00000132 +00000-0 +34214-4 0  9994
2 28895 097.8936 225.4116 0017230 024.8393 335.3635 14.63516642659263
CUTE-1.7+APD II
1 32785U 08021C   18069.87551280  .00000201  00000-0  27498-4 0  9993
2 32785  97.5523  86.7246 0013293  11.4170 348.7346 14.88073168534556
DELFI C3
1 32789U 08021G   18070.10546888  .00001617  00000-0  11563-3 0  9990
2 32789  97.5244 127.3545 0011058 271.7339  88.2621 15.05802666537029
SEEDS
1 32791U 08021J   18070.12384228  .00000338  00000-0  39977-4 0  9992
2 32791  97.5436  92.0891 0013044 351.9983   8.1025 14.90484120534907
YUBELEINY
1 32953U 08025A   18070.49225062  .00000033  00000-0  16434-3 0  9990
2 32953  82.4992  73.4338 0020284  64.6412 295.6765 12.43082165444638
PRISM (HITOMI)
1 33493U 09002B   18070.39187449  .00000533  00000-0  53053-4 0  9995
2 33493  98.1391 328.6855 0013756 280.9414  79.0276 14.96099241495725
KKS-1 (KISEKI)
1 33499U 09002H   18070.17530365  .00000119  00000-0  25645-4 0  9992
2 33499  98.3512 248.7768 0008125 240.7268 119.3129 14.75301343490724
SWISSCUBE
1 35932U 09051B   18070.38083085  .00000128  00000-0  39911-4 0  9996
2 35932  98.5293 219.2730 0008467 144.5437 215.6324 14.56128625449209
BEESAT
1 35933U 09051C   18069.86544083  .00000103  00000-0  34254-4 0  9996
2 35933  98.5332 220.2301 0006408 155.9801 204.1696 14.56235895449230
ITUPSAT 1
1 35935U 09051E   18069.86477296  .00000076  00000-0  28629-4 0  9997
2 35935  98.5445 220.4837 0008789 153.5543 206.6104 14.55416529449026
XIWANG-1 (HOPE-1)
1 36122U 09072B   18070.49808249 -.00000052  00000-0 -26770-4 0  9997
2 36122 100.0825  89.6782 0007243 343.3882  16.6994 13.16343648395796
TISAT 1
1 36799U 10035E   18069.78431427  .00000519  00000-0  58855-4 0  9993
2 36799  98.0900 203.4915 0012810 166.0543 194.1031 14.90714767415491
JUGNU
1 37839U 11058B   18069.88732108 +.00000329 +00000-0 +33222-4 0  9996
2 37839 019.9611 273.3225 0018882 243.3396 242.9650 14.12611733331341
SRMSAT
1 37841U 11058D   18069.97481365 +.00000305 +00000-0 +22625-4 0  9994
2 37841 019.9728 319.9681 0012025 132.2347 339.6113 14.10600049330906
M-CUBED/EXP-1 PRIME
1 37855U 11061F   18069.96852607 +.00001952 +00000-0 +10749-3 0  9995
2 37855 101.7261 082.2347 0177473 012.8979 347.6685 15.04137244346417
HORYU 2
1 38340U 12025D   18070.08516521  .00000159  00000-0  31412-4 0  9992
2 38340  98.3733  88.4047 0012110 157.5402 202.6339 14.75509308312646
STRAND 1
1 39090U 13009E   18069.86676123 +.00000024 +00000-0 +23941-4 0  9996
2 39090 098.5313 277.4739 0008364 224.5736 135.4777 14.35013745263706
SOMP
1 39134U 13015E   18069.51219829 +.00001315 +00000-0 +72089-4 0  9991
2 39134 064.8628 086.0368 0021997 223.8356 136.1025 15.18873820269912
BEESAT 3
1 39135U 13015F   18070.23123028  .00000843  00000-0  52957-4 0  9995
2 39135  64.8676  95.8124 0027482 246.8210 113.0020 15.16442500269793
BEESAT 2
1 39136U 13015G   18069.57309204 +.00000682 +00000-0 +45398-4 0  9995
2 39136 064.8684 100.4548 0028378 246.4393 113.3751 15.15921793269259
CUBEBUG 1
1 39153U 13018D   18070.50389440  .00000195  00000-0  32602-4 0  9995
2 39153  97.9773 166.3397 0015630 261.7435  98.2004 14.80351112263137
ZACUBE
1 39417U 13066B   18070.54489666  .00000232  00000-0  35608-4 0  9997
2 39417  97.5985 104.3432 0060600 114.5097 246.2451 14.80887088232345
TRITON 1
1 39427U 13066M   18069.57909420 +.00000131 +00000-0 +29128-4 0  9992
2 39427 097.6390 072.0597 0113296 214.7034 144.6744 14.67619337229925
GOMX 1
1 39430U 13066Q   18070.44188387  .00000175  00000-0  41158-4 0  9990
2 39430  97.6886  54.4102 0150190 279.2459  79.1783 14.59035811228896
HUMSAT D
1 39433U 13066T   18070.38061585  .00000554  00000-0  59953-4 0  9999
2 39433  97.6167 130.1240 0032065  50.4230 309.9814 14.91769166233845
50 SAT
1 39436U 13066W   18070.32057871  .00123980  00000-0  13415-2 0  9999
2 39436  97.7110 198.7865 0005512 212.7390 147.3527 15.63161382237965
CUBEBUG 2
1 39440U 13066AA  18070.09016249  .00000171  00000-0  30796-4 0  9991
2 39440  97.6082  91.1243 0081322 153.1942 207.3506 14.75622086231454
FUNCUBE 1
1 39444U 13066AE  18070.52420011  .00000273  00000-0  40011-4 0  9993
2 39444  97.5997 105.7246 0059801 110.4503 250.3145 14.81653885231199
UWE-3
1 39446U 13066AG  18070.34862490  .00000220  00000-0  35863-4 0  9997
2 39446  97.6021  97.3963 0071450 134.0603 226.6523 14.78155781230664
SPROUT
1 39770U 14029E   18070.46968983  .00000981  00000-0  11639-3 0  9992
2 39770  97.8715 172.3721 0009537 160.9371 199.2202 14.86707309205848
UNISAT 6
1 40012U 14033C   18070.17679861  .00000142  00000-0  28684-4 0  9998
2 40012  97.8231 309.9987 0059038 153.7335 206.6888 14.73773484200262
DUCHIFAT 1
1 40021U 14033M   18069.82798338  .00000350  00000-0  41965-4 0  9997
2 40021  97.9173 348.3705 0013837 137.6486 222.5802 14.90217704202305
QB50P1
1 40025U 14033R   18069.87981650  .00000233  00000-0  31014-4 0  9991
2 40025  97.9081 345.4694 0013281 143.1053 217.1079 14.88650257202168
CHUBUSAT 1
1 40300U 14070C   18070.43499678  .00000477  00000-0  24248-4 0  9997
2 40300  97.3703 150.1975 0018604 243.6219 249.6097 15.21415875185417
NUDT-PHONESAT
1 40900U 15049B   18070.02503296  .00002198  00000-0  10242-3 0  9997
2 40900  97.4436  79.4297 0014083  20.3529 339.8265 15.20877623136998
ZDPS 2A
1 40901U 15049C   18070.45468235  .00001082  00000-0  58217-4 0  9994
2 40901  97.4603  78.3347 0014411  24.1934 335.9973 15.16897684136847
ZDPS 2B
1 40902U 15049D   18070.21740520  .00000783  00000-0  43288-4 0  9998
2 40902  97.4495  76.2870 0014425  22.1879 337.9975 15.16700363136791
XW-2A
1 40903U 15049E   18070.53534876  .00002270  00000-0  58690-4 0  9995
2 40903  97.3965 104.3797 0015103  29.3090 330.9000 15.40091092138773
KAITUO 1A
1 40904U 15049F   18070.46812575  .00000494  00000-0  29981-4 0  9990
2 40904  97.4592  75.8861 0015642  22.4833 132.2374 15.14909243136707
OBJECT G
1 40905U 15049G   18070.46081708  .00000430  00000-0  27294-4 0  9992
2 40905  97.4582  74.1171 0016225  14.9215 345.2492 15.13878866136635
XW-2C
1 40906U 15049H   18070.50861144  .00000707  00000-0  41227-4 0  9997
2 40906  97.4602  75.8005 0015454  14.9237 345.2449 15.15048408136703
XW-2D
1 40907U 15049J   18070.47047139  .00000761  00000-0  43970-4 0  9991
2 40907  97.4574  75.4725 0014776  13.2976 346.8643 15.15188576136709
LILACSAT 2
1 40908U 15049K   18070.03039231  .00000367  00000-0  24103-4 0  9997
2 40908  97.4683  74.5237 0016442  14.8501 345.3210 15.13425581136524
XW-2F
1 40910U 15049M   18070.49378052  .00001109  00000-0  60548-4 0  9995
2 40910  97.4581  76.6346 0015393   9.2622 350.8892 15.16311055136658
XW-2B
1 40911U 15049N   18070.48447951  .00000711  00000-0  41376-4 0  9996
2 40911  97.4612  75.9861 0014700  13.7892 346.3739 15.15136462136609
